星链-38078(STARLINK-38078)

导读

STARLINK-38078(NORAD编号69744)是美国SpaceX公司星链(Starlink)低轨互联网星座的组网卫星,2026年6月28日从美国范登堡空军基地(AFWTR)发射入轨,国际编号为2026-147系列,属于最新一批部署的星链载荷。该卫星运行于近地轨道(LEO),作为星链星座的组成部分,主要承担全球高速互联网接入服务,设计寿命约5年,单星传输速率可达1Gbps以上,后续将在约550公里高度的工作轨道上运行,为地面用户提供低时延宽带通信支持。

Basic Information
目录编号:
69744
目录名称:
STARLINK-38078
国际标识:
2026-150F
轨道中心:
EARTH
卫星名称:
星链-38078
卫星全名:
星链-38078(STARLINK-38078)
卫星状态:
在轨 (已飞行64 天)
发射日期:
2026-07-02 UTC
国别 :
美国 (US)
星等 :
--
Orbit Information
数据来源 国际轨道数据
星历时间: 2026-09-04T08:04:24+0800
8小时前
查看轨道信息
半长轴: 6843.683km
偏心率: 0.0001946
轨道倾角: 97.286°
近地点辐角 87.801°
升交点赤经 86.103°
平近点角 272.346°
近地点: 464.214km
远地点: 466.878km
周期: 93.906分钟
每日圈数: 15.334442
Detailed Information
固有亮度:
5
最大亮度:
2.5
卫星平台:
Starlink V1.0
覆盖范围:
全球
运营商:
太空探索技术公司
运营商所在国:
美国
制造商(研发单位):
太空探索技术公司
制造商所在国:
美国
使用方式:
暂无
Satellite Introduction
Starlink 计划是 SpaceX 推出的全球卫星互联网项目,通过发射低轨道卫星,为全球尤其是偏远地区提供高速、低延迟的互联网服务。自 2019 年起,Starlink 已部署数千颗卫星,旨在缩小全球数字鸿沟,推动互联网普及。该项目还为军事、航空等行业提供通信支持,带来广泛经济效益。
2D Orbit Map
3D Orbit Map
Orbit Altitude Analysis Chart
Orbit Inclination Analysis Chart
Orbit Comprehensive Analysis Chart
View Comprehensive Chart
Conjunction Data List
Event ID Objects TCA Miss Dist (km) Collision Risk Probability Collision Risk Index (CRI) Action
CDM_260905-233204-379906-974421
HAWK-C (43799)
2026-09-05T
23:32:47+0000
2.142 km
极远距离
2.388852E-6 低风险 0.43
CDM_260904-211404-827806-974421
2026-09-04T
21:14:19+0000
2.925 km
极远距离
1.379362E-6 低风险 0.38
CDM_260904-125004-832006-974421
2026-09-04T
12:50:07+0000
2.858 km
极远距离
1.245694E-6 低风险 0.37
CDM_260905-143904-603506-974421
2026-09-05T
14:39:57+0000
2.811 km
极远距离
1.178571E-6 低风险 0.36
CDM_260905-110904-783706-974421
2026-09-05T
11:09:40+0000
2.627 km
极远距离
1.048788E-6 低风险 0.35